| time (UTC) | temp F | wind direction | speed MPH | gust MPH | rain 1hr in | rain 24hr in | rain mn in | humidity % | barometer mb |
| 20260506231515 | 71 | 293 | 19.0 | 27.0 | 0.00 | 0.00 | 0.00 | 20 | 1012.2 |
| 20260506230016 | 70 | 293 | 20.0 | 32.0 | 0.00 | 0.00 | 0.00 | 21 | 1012.0 |
| 20260506224537 | 71 | 270 | 21.0 | 32.0 | 0.00 | 0.00 | 0.00 | 20 | 1012.2 |
| 20260506223017 | 72 | 270 | 20.0 | 32.0 | 0.00 | 0.00 | 0.00 | 19 | 1011.9 |
| 20260506221537 | 73 | 293 | 20.0 | 32.0 | 0.00 | 0.00 | 0.00 | 20 | 1012.0 |
| 20260506220017 | 72 | 293 | 18.0 | 30.0 | 0.00 | 0.00 | 0.00 | 19 | 1011.8 |
| 20260506214517 | 73 | 293 | 16.0 | 30.0 | 0.00 | 0.00 | 0.00 | 19 | 1012.3 |
| 20260506213037 | 71 | 270 | 16.0 | 25.0 | 0.00 | 0.00 | 0.00 | 19 | 1012.4 |
| 20260506211517 | 71 | 270 | 15.0 | 28.0 | 0.00 | 0.01 | 0.00 | 20 | 1012.6 |
| 20260506210017 | 71 | 293 | 14.0 | 27.0 | 0.00 | 0.01 | 0.00 | 21 | 1012.9 |
| 20260506204517 | 70 | 293 | 12.0 | 22.0 | 0.00 | 0.01 | 0.00 | 22 | 1013.1 |
| 20260506203017 | 69 | 293 | 15.0 | 24.0 | 0.00 | 0.01 | 0.00 | 22 | 1013.2 |
| 20260506201517 | 69 | 293 | 16.0 | 25.0 | 0.00 | 0.01 | 0.00 | 22 | 1013.4 |
| 20260506200017 | 69 | 293 | 15.0 | 26.0 | 0.00 | 0.01 | 0.00 | 22 | 1013.4 |
| 20260506194537 | 67 | 270 | 11.0 | 20.0 | 0.00 | 0.01 | 0.00 | 23 | 1013.4 |
| 20260506193017 | 67 | 293 | 13.0 | 27.0 | 0.00 | 0.01 | 0.00 | 24 | 1013.7 |
| 20260506191517 | 68 | 270 | 13.0 | 25.0 | 0.00 | 0.01 | 0.00 | 23 | 1013.7 |
| 20260506190018 | 67 | 270 | 11.0 | 23.0 | 0.00 | 0.02 | 0.00 | 25 | 1014.0 |
| 20260506184517 | 67 | 270 | 12.0 | 21.0 | 0.00 | 0.02 | 0.00 | 24 | 1014.5 |
| 20260506183037 | 66 | 270 | 10.0 | 22.0 | 0.00 | 0.02 | 0.00 | 25 | 1014.5 |
| 20260506181517 | 64 | 293 | 10.0 | 22.0 | 0.00 | 0.02 | 0.00 | 26 | 1014.4 |
| 20260506180017 | 63 | 315 | 11.0 | 24.0 | 0.00 | 0.02 | 0.00 | 28 | 1014.6 |
| 20260506174517 | 62 | 315 | 10.0 | 18.0 | 0.00 | 0.02 | 0.00 | 30 | 1014.8 |
| 20260506173017 | 62 | 315 | 11.0 | 23.0 | 0.00 | 0.02 | 0.00 | 30 | 1014.8 |
| 20260506171517 | 62 | 293 | 15.0 | 23.0 | 0.00 | 0.02 | 0.00 | 31 | 1015.2 |
| 20260506170017 | 61 | 293 | 13.0 | 28.0 | 0.00 | 0.02 | 0.00 | 31 | 1015.1 |
| 20260506164517 | 61 | 293 | 15.0 | 24.0 | 0.00 | 0.03 | 0.00 | 32 | 1015.5 |
| 20260506163016 | 60 | 293 | 12.0 | 20.0 | 0.00 | 0.03 | 0.00 | 34 | 1015.4 |
| 20260506161517 | 59 | 293 | 14.0 | 23.0 | 0.00 | 0.03 | 0.00 | 35 | 1015.3 |
| 20260506160017 | 58 | 293 | 10.0 | 21.0 | 0.00 | 0.03 | 0.00 | 36 | 1015.4 |
| 20260506154537 | 57 | 270 | 9.0 | 18.0 | 0.00 | 0.03 | 0.00 | 37 | 1015.6 |
| 20260506153017 | 56 | 270 | 11.0 | 19.0 | 0.00 | 0.03 | 0.00 | 39 | 1015.3 |
| 20260506151517 | 55 | 270 | 8.0 | 15.0 | 0.00 | 0.03 | 0.00 | 42 | 1015.8 |
| 20260506150016 | 54 | 270 | 8.0 | 15.0 | 0.00 | 0.03 | 0.00 | 43 | 1015.6 |
| 20260506144516 | 53 | 270 | 7.0 | 15.0 | 0.00 | 0.03 | 0.00 | 44 | 1015.4 |
| 20260506143016 | 52 | 293 | 4.0 | 10.0 | 0.00 | 0.03 | 0.00 | 47 | 1015.0 |
| 20260506141537 | 52 | 293 | 1.0 | 4.0 | 0.00 | 0.03 | 0.00 | 49 | 1015.2 |
| 20260506140016 | 51 | 45 | 2.0 | 5.0 | 0.00 | 0.03 | 0.00 | 51 | 1015.1 |
| 20260506134516 | 50 | 45 | 2.0 | 6.0 | 0.00 | 0.03 | 0.00 | 52 | 1015.2 |
| 20260506133056 | 48 | 45 | 4.0 | 12.0 | 0.00 | 0.03 | 0.00 | 57 | 1014.6 |
| 20260506131516 | 46 | 270 | 3.0 | 6.0 | 0.00 | 0.03 | 0.00 | 60 | 1013.9 |
| 20260506130016 | 45 | 270 | 4.0 | 6.0 | 0.00 | 0.03 | 0.00 | 62 | 1013.7 |
| 20260506124517 | 45 | 270 | 3.0 | 7.0 | 0.00 | 0.03 | 0.00 | 62 | 1013.5 |
| 20260506123036 | 44 | 0 | 3.0 | 8.0 | 0.00 | 0.03 | 0.00 | 64 | 1013.1 |
| 20260506121517 | 46 | 270 | 4.0 | 10.0 | 0.00 | 0.03 | 0.00 | 60 | 1013.5 |
| 20260506120017 | 47 | 270 | 8.0 | 13.0 | 0.00 | 0.03 | 0.00 | 60 | 1013.2 |
| 20260506114516 | 46 | 270 | 10.0 | 15.0 | 0.00 | 0.03 | 0.00 | 62 | 1012.5 |
| 20260506113016 | 46 | 270 | 10.0 | 15.0 | 0.00 | 0.03 | 0.00 | 63 | 1012.4 |
| 20260506111516 | 46 | 293 | 12.0 | 16.0 | 0.00 | 0.03 | 0.00 | 62 | 1012.6 |
| 20260506110036 | 47 | 293 | 13.0 | 18.0 | 0.00 | 0.03 | 0.00 | 62 | 1012.3 |
| 20260506104516 | 47 | 293 | 13.0 | 17.0 | 0.00 | 0.03 | 0.00 | 62 | 1012.0 |
| 20260506103016 | 47 | 293 | 13.0 | 16.0 | 0.00 | 0.03 | 0.00 | 62 | 1011.9 |
| 20260506101536 | 47 | 293 | 11.0 | 16.0 | 0.00 | 0.03 | 0.00 | 64 | 1011.6 |
| 20260506100036 | 46 | 315 | 5.0 | 9.0 | 0.00 | 0.03 | 0.00 | 65 | 1011.6 |
| 20260506094516 | 46 | 338 | 5.0 | 8.0 | 0.00 | 0.03 | 0.00 | 63 | 1011.9 |
| 20260506093036 | 47 | 338 | 3.0 | 7.0 | 0.00 | 0.03 | 0.00 | 62 | 1011.7 |
| 20260506091516 | 48 | 248 | 2.0 | 5.0 | 0.00 | 0.03 | 0.00 | 61 | 1011.8 |
| 20260506090016 | 48 | 248 | 1.0 | 7.0 | 0.00 | 0.03 | 0.00 | 59 | 1012.2 |
| 20260506084516 | 49 | 315 | 2.0 | 6.0 | 0.00 | 0.03 | 0.00 | 59 | 1011.5 |
| 20260506083016 | 49 | 315 | 5.0 | 10.0 | 0.00 | 0.03 | 0.00 | 58 | 1011.3 |
| 20260506081516 | 50 | 338 | 5.0 | 9.0 | 0.00 | 0.03 | 0.00 | 57 | 1011.0 |
| 20260506073036 | 49 | 45 | 4.0 | 8.0 | 0.00 | 0.03 | 0.00 | 73 | 1011.4 |
| 20260506071516 | 49 | 23 | 4.0 | 10.0 | 0.00 | 0.03 | 0.00 | 72 | 1011.7 |
| 20260506061516 | 51 | 68 | 5.0 | 11.0 | 0.00 | 0.03 | 0.00 | 68 | 1010.6 |
| 20260506044516 | 57 | 315 | 11.0 | 19.0 | 0.00 | 0.03 | 0.03 | 53 | 1010.4 |
| 20260506043016 | 57 | 315 | 12.0 | 24.0 | 0.00 | 0.03 | 0.03 | 51 | 1009.9 |
| 20260506041556 | 57 | 293 | 13.0 | 19.0 | 0.00 | 0.03 | 0.03 | 50 | 1010.1 |
| 20260506040015 | 58 | 293 | 10.0 | 14.0 | 0.00 | 0.03 | 0.03 | 48 | 1009.5 |
| 20260506034536 | 60 | 270 | 9.0 | 18.0 | 0.00 | 0.03 | 0.03 | 42 | 1009.8 |
| 20260506033016 | 60 | 270 | 7.0 | 17.0 | 0.00 | 0.03 | 0.03 | 46 | 1009.8 |
| 20260506031515 | 60 | 270 | 3.0 | 5.0 | 0.00 | 0.03 | 0.03 | 47 | 1009.7 |
| 20260506030035 | 61 | 270 | 6.0 | 14.0 | 0.00 | 0.03 | 0.03 | 43 | 1009.2 |
| 20260506024516 | 60 | 158 | 4.0 | 15.0 | 0.00 | 0.03 | 0.03 | 45 | 1008.5 |
| 20260506023015 | 59 | 180 | 1.0 | 6.0 | 0.00 | 0.03 | 0.03 | 52 | 1008.5 |
| 20260506021517 | 59 | 158 | 4.0 | 9.0 | 0.00 | 0.03 | 0.03 | 52 | 1007.9 |
| 20260506020017 | 59 | 113 | 4.0 | 9.0 | 0.00 | 0.03 | 0.03 | 53 | 1007.9 |
| 20260506014517 | 60 | 113 | 3.0 | 5.0 | 0.00 | 0.03 | 0.03 | 52 | 1008.1 |
| 20260506013017 | 61 | 68 | 3.0 | 9.0 | 0.00 | 0.03 | 0.03 | 51 | 1007.6 |
| 20260506011536 | 61 | 68 | 5.0 | 9.0 | 0.00 | 0.03 | 0.03 | 52 | 1007.1 |
| 20260506010037 | 61 | 68 | 5.0 | 10.0 | 0.00 | 0.03 | 0.03 | 53 | 1007.1 |
| 20260506004517 | 61 | 45 | 5.0 | 10.0 | 0.00 | 0.03 | 0.03 | 52 | 1007.3 |
| 20260506003017 | 61 | 45 | 6.0 | 12.0 | 0.00 | 0.03 | 0.03 | 52 | 1007.3 |
| 20260506001515 | 62 | 45 | 9.0 | 14.0 | 0.00 | 0.03 | 0.03 | 50 | 1007.3 |
| 20260506000017 | 62 | 23 | 10.0 | 16.0 | 0.00 | 0.03 | 0.03 | 49 | 1006.8 |
| 20260505234557 | 62 | 23 | 11.0 | 18.0 | 0.00 | 0.03 | 0.03 | 51 | 1006.8 |
| 20260505233017 | 61 | 23 | 12.0 | 19.0 | 0.00 | 0.03 | 0.03 | 52 | 1007.1 |